Location: ScottNC Observatory
(36.0892°N, 80.4832°W)
Time: 12:59:04
(UTC-04:00)

AO-92 - Visible Passes

Search period start: 19 April 2019 00:00
Search period end: 29 April 2019 00:00
Orbit: 488 x 503 km, 97.5° (Epoch: 19 April)

Date Brightness Start Highest point End Pass type
(mag) Time Alt. Az. Time Alt. Az. Time Alt. Az.
19 Apr ? 23:04:05 13° NNW 23:04:05 13° NNW 23:04:31 10° NNW visible
20 Apr ? 22:42:51 14° N 22:42:51 14° N 22:43:28 10° N visible
21 Apr ? 22:21:37 13° NNE 22:21:37 13° NNE 22:22:06 10° NNE visible
22 Apr ? 23:34:58 10° NNW 23:34:58 10° NNW 23:35:00 10° NNW visible
23 Apr ? 23:13:44 14° NNW 23:13:44 14° NNW 23:14:21 10° NNW visible
24 Apr ? 22:52:30 17° N 22:52:30 17° N 22:53:24 10° N visible
25 Apr ? 22:31:15 16° NNE 22:31:15 16° NNE 22:32:11 10° N visible
26 Apr ? 22:10:01 12° NE 22:10:01 12° NE 22:10:34 10° NNE visible
27 Apr ? 23:23:21 15° NNW 23:23:21 15° NNW 23:24:04 10° NNW visible
28 Apr ? 23:02:07 19° N 23:02:07 19° N 23:03:15 10° N visible
